Soldotna, AK

2:40 PM AKDT on September 24, 2017 (GMT -0800)
Soldotna

Weather History for PASX - October, 2011

Change the Weather History Date:

Monday, October 31, 2011

  Actual Average Record
Temperature  
Mean Temperature 22 °F -  
Max Temperature 26 °F 34 °F 51 °F (2002)
Min Temperature 17 °F 19 °F -8 °F (1961)
Degree Days  
Heating Degree Days 44    
Moisture  
Dew Point 18 °F    
Average Humidity 82    
Maximum Humidity 86    
Minimum Humidity 74    
Precipitation  
Precipitation 0.00 in - - ()
Sea Level Pressure  
Sea Level Pressure 29.66 in    
Wind  
Wind Speed 5 mph (ENE)    
Max Wind Speed 10 mph    
Max Gust Speed 17 mph    
Visibility 7 miles    
Events      
Averages and records for this station are not official NWS values.
T = Trace of Precipitation, MM = Missing Value Source: NWS Daily Summary

Daily Weather History Graph

Daily Weather History Graph

Search for Another Location

Airport or City:

Trip Planner

Search our weather history database for the weather conditions in past years. The results will help you decide how hot, cold, wet, or windy it might be!

Date:

Astronomy

Oct. 31, 2011 Rise Set
Actual Time 9:25 AM AKDT 6:08 PM AKDT
Civil Twilight 8:40 AM AKDT 6:54 PM AKDT
Nautical Twilight 7:49 AM AKDT 7:44 PM AKDT
Astronomical Twilight 7:01 AM AKDT 8:33 PM AKDT
Moon 3:16 PM AKDT (10/31) 10:24 PM AKDT (10/31)
Length of Visible Light 10h 14m
Length of Day
8h 42m
Waxing Crescent, 31% of the Moon is Illuminated
Oct 31
Waxing Crescent
Nov 2
First Quarter
Nov 10
Full
Nov 18
Last Quarter
Nov 24
New

Hourly Weather History & Observations

Time (AKDT) Temp. Windchill Dew Point Humidity Pressure Visibility Wind Dir Wind Speed Gust Speed Precip Events Conditions
12:16 AM 21.2 °F 16.4 °F 17.6 °F 86% 29.68 in 10.0 mi East 3.5 mph - N/A   Clear
12:36 AM 21.2 °F 13.6 °F 17.6 °F 86% 29.68 in 10.0 mi East 5.8 mph - N/A   Clear
12:56 AM 19.4 °F 12.8 °F 15.8 °F 86% 29.68 in 10.0 mi ENE 4.6 mph - N/A   Clear
1:16 AM 19.4 °F 12.8 °F 15.8 °F 86% 29.69 in 10.0 mi East 4.6 mph - N/A   Partly Cloudy
1:36 AM 19.4 °F 12.8 °F 15.8 °F 86% 29.69 in 10.0 mi East 4.6 mph - N/A   Mostly Cloudy
1:56 AM 19.4 °F 12.8 °F 15.8 °F 86% 29.68 in 10.0 mi East 4.6 mph - N/A   Overcast
2:16 AM 19.4 °F 11.5 °F 15.8 °F 86% 29.68 in 10.0 mi ESE 5.8 mph - N/A   Partly Cloudy
2:36 AM 19.4 °F 11.5 °F 15.8 °F 86% 29.68 in 10.0 mi East 5.8 mph - N/A   Clear
2:56 AM 19.4 °F 10.4 °F 15.8 °F 86% 29.68 in 10.0 mi ESE 6.9 mph - N/A   Clear
3:16 AM 19.4 °F 10.4 °F 15.8 °F 86% 29.67 in 10.0 mi East 6.9 mph - N/A   Clear
3:36 AM 19.4 °F 11.5 °F 14.0 °F 80% 29.67 in 10.0 mi East 5.8 mph - N/A   Clear
3:56 AM 17.6 °F 10.7 °F 14.0 °F 86% 29.66 in 10.0 mi East 4.6 mph - N/A   Scattered Clouds
4:16 AM 17.6 °F 9.3 °F 14.0 °F 86% 29.66 in 10.0 mi ESE 5.8 mph - N/A   Overcast
4:36 AM 17.6 °F 9.3 °F 12.2 °F 79% 29.65 in 10.0 mi East 5.8 mph - N/A   Overcast
4:56 AM 19.4 °F 12.8 °F 14.0 °F 80% 29.65 in 10.0 mi ESE 4.6 mph - N/A   Overcast
5:16 AM 19.4 °F 14.3 °F 14.0 °F 80% 29.65 in 10.0 mi East 3.5 mph - N/A   Overcast
5:36 AM 19.4 °F 14.3 °F 15.8 °F 86% 29.65 in 10.0 mi ESE 3.5 mph - N/A   Overcast
5:56 AM 19.4 °F 14.3 °F 15.8 °F 86% 29.65 in 10.0 mi ESE 3.5 mph - N/A   Overcast
6:16 AM 19.4 °F 12.8 °F 15.8 °F 86% 29.65 in 10.0 mi East 4.6 mph - N/A   Overcast
6:36 AM 19.4 °F 12.8 °F 15.8 °F 86% 29.65 in 10.0 mi East 4.6 mph - N/A   Overcast
6:56 AM 21.2 °F 16.4 °F 15.8 °F 80% 29.65 in 10.0 mi ESE 3.5 mph - N/A   Overcast
7:16 AM 21.2 °F 16.4 °F 17.6 °F 86% 29.65 in 10.0 mi East 3.5 mph - N/A   Overcast
7:36 AM 21.2 °F 16.4 °F 15.8 °F 80% 29.65 in 10.0 mi SE 3.5 mph - N/A   Overcast
7:56 AM 23.0 °F 17.0 °F 17.6 °F 80% 29.64 in 10.0 mi East 4.6 mph - N/A   Overcast
8:16 AM 23.0 °F 17.0 °F 19.4 °F 86% 29.65 in 10.0 mi ENE 4.6 mph - N/A   Overcast
8:36 AM 24.8 °F - 19.4 °F 80% 29.65 in 10.0 mi Calm Calm - N/A   Overcast
8:56 AM 24.8 °F 16.1 °F 19.4 °F 80% 29.65 in 10.0 mi NE 8.1 mph - N/A   Overcast
9:16 AM 24.8 °F 20.5 °F 19.4 °F 80% 29.65 in 10.0 mi ENE 3.5 mph - N/A   Mostly Cloudy
9:36 AM 24.8 °F 17.9 °F 17.6 °F 74% 29.66 in 10.0 mi NE 5.8 mph - N/A   Overcast
9:56 AM 24.8 °F 19.1 °F 17.6 °F 74% 29.66 in 10.0 mi NNE 4.6 mph - N/A   Overcast
10:16 AM 26.6 °F 19.1 °F 19.4 °F 74% 29.65 in 10.0 mi NNE 6.9 mph - N/A   Overcast
10:36 AM 26.6 °F 16.8 °F 19.4 °F 74% 29.66 in 10.0 mi ENE 10.4 mph 17.3 mph N/A   Overcast
10:56 AM 26.6 °F 19.1 °F 19.4 °F 74% 29.67 in 10.0 mi NNE 6.9 mph - N/A   Overcast
11:16 AM 26.6 °F 16.8 °F 19.4 °F 74% 29.67 in 10.0 mi NNE 10.4 mph - N/A   Overcast
11:36 AM 26.6 °F 18.2 °F 21.2 °F 80% 29.67 in 9.0 mi NE 8.1 mph - N/A   Overcast
11:56 AM 26.6 °F 18.2 °F 19.4 °F 74% 29.67 in 10.0 mi NE 8.1 mph 17.3 mph N/A   Overcast
12:16 PM 26.6 °F 18.2 °F 21.2 °F 80% 29.68 in 7.0 mi NE 8.1 mph - N/A   Overcast
12:36 PM 26.6 °F 19.1 °F 21.2 °F 80% 29.67 in 1.8 mi NE 6.9 mph - N/A   Overcast
12:56 PM 26.6 °F 20.0 °F 21.2 °F 80% 29.67 in 1.5 mi NE 5.8 mph - N/A   Overcast
1:16 PM 26.6 °F 17.5 °F 21.2 °F 80% 29.68 in 1.0 mi NE 9.2 mph - N/A   Overcast
1:36 PM 26.6 °F 20.0 °F 21.2 °F 80% 29.67 in 1.0 mi NE 5.8 mph - N/A   Overcast
1:56 PM 24.8 °F 17.9 °F 21.2 °F 86% 29.67 in 1.0 mi NE 5.8 mph - N/A   Overcast
2:16 PM 26.6 °F 18.2 °F 21.2 °F 80% 29.67 in 2.0 mi NE 8.1 mph - N/A   Overcast
2:36 PM 26.6 °F 20.0 °F 21.2 °F 80% 29.67 in 3.0 mi NE 5.8 mph - N/A   Overcast
2:56 PM 26.6 °F 20.0 °F 21.2 °F 80% 29.66 in 1.5 mi NE 5.8 mph - N/A   Overcast
3:16 PM 26.6 °F 20.0 °F 21.2 °F 80% 29.66 in 0.8 mi NE 5.8 mph - N/A   Overcast
3:36 PM 26.6 °F 20.0 °F 23.0 °F 86% 29.66 in 0.8 mi NE 5.8 mph - N/A   Overcast
3:56 PM 26.6 °F 16.8 °F 21.2 °F 80% 29.66 in 0.8 mi NE 10.4 mph - N/A   Overcast
4:16 PM 26.6 °F 19.1 °F 21.2 °F 80% 29.65 in 2.0 mi NE 6.9 mph - N/A   Overcast
4:36 PM 24.8 °F 16.9 °F 21.2 °F 86% 29.65 in 1.2 mi ENE 6.9 mph - N/A   Overcast
4:56 PM 24.8 °F 19.1 °F 21.2 °F 86% 29.64 in 1.0 mi ENE 4.6 mph - N/A   Overcast
5:16 PM 24.8 °F 17.9 °F 21.2 °F 86% 29.64 in 0.5 mi ENE 5.8 mph - N/A   Overcast
5:36 PM 24.8 °F 17.9 °F 21.2 °F 86% 29.64 in 1.2 mi ENE 5.8 mph - N/A   Overcast
5:56 PM 24.8 °F 20.5 °F 21.2 °F 86% 29.64 in 1.2 mi ENE 3.5 mph - N/A   Overcast
6:16 PM 24.8 °F 19.1 °F 21.2 °F 86% 29.63 in 1.2 mi ENE 4.6 mph - N/A   Overcast
6:36 PM 24.8 °F 19.1 °F 21.2 °F 86% 29.63 in 2.0 mi ENE 4.6 mph - N/A   Overcast
6:56 PM 24.8 °F 19.1 °F 21.2 °F 86% 29.63 in 7.0 mi ENE 4.6 mph - N/A   Overcast
7:16 PM 24.8 °F 19.1 °F 21.2 °F 86% 29.63 in 10.0 mi ENE 4.6 mph - N/A   Overcast
7:36 PM 24.8 °F 19.1 °F 21.2 °F 86% 29.62 in 10.0 mi NE 4.6 mph - N/A   Overcast
7:56 PM 24.8 °F 17.9 °F 21.2 °F 86% 29.62 in 10.0 mi NE 5.8 mph - N/A   Overcast
8:16 PM 24.8 °F 17.9 °F 21.2 °F 86% 29.61 in 10.0 mi NNE 5.8 mph - N/A   Overcast
8:36 PM 24.8 °F 17.9 °F 19.4 °F 80% 29.61 in 10.0 mi NNE 5.8 mph - N/A   Overcast
8:56 PM 24.8 °F 17.9 °F 19.4 °F 80% 29.61 in 10.0 mi ENE 5.8 mph - N/A   Overcast
9:16 PM 24.8 °F 17.9 °F 21.2 °F 86% 29.60 in 10.0 mi ENE 5.8 mph - N/A   Overcast
9:36 PM 24.8 °F 16.9 °F 21.2 °F 86% 29.60 in 10.0 mi ENE 6.9 mph - N/A   Overcast
9:56 PM 24.8 °F 16.9 °F 21.2 °F 86% 29.60 in 10.0 mi NE 6.9 mph - N/A   Overcast
10:16 PM 24.8 °F 16.1 °F 21.2 °F 86% 29.60 in 10.0 mi ENE 8.1 mph - N/A   Overcast
10:36 PM 24.8 °F 16.9 °F 19.4 °F 80% 29.59 in 10.0 mi ENE 6.9 mph - N/A   Overcast
10:56 PM 24.8 °F 16.9 °F 19.4 °F 80% 29.58 in 10.0 mi ENE 6.9 mph - N/A   Overcast
11:16 PM 24.8 °F 19.1 °F 19.4 °F 80% 29.58 in 10.0 mi ENE 4.6 mph - N/A   Overcast
11:36 PM 24.8 °F 17.9 °F 19.4 °F 80% 29.57 in 10.0 mi ENE 5.8 mph - N/A   Overcast
11:56 PM 24.8 °F 19.1 °F 19.4 °F 80% 29.57 in 10.0 mi ENE 4.6 mph - N/A   Overcast